owner,sensor,date,latitude,longitude,vertical_datum,sea_water_practical_salinity,qcFlag 
DISL,ioos:station:DISL:PPTA:1,2019-03-07T23:00:00Z,30.2791,-87.5561,1.1,24.2,11111222 
DISL,ioos:station:DISL:PPTA:1,2019-03-07T23:30:00Z,30.2791,-87.5561,1.1,29.4,11111222 
DISL,ioos:station:DISL:PPTA:1,2019-03-08T00:00:00Z,30.2791,-87.5561,1.1,30.0,11111222 
DISL,ioos:station:DISL:PPTA:1,2019-03-08T00:30:00Z,30.2791,-87.5561,1.1,30.6,11111222 
DISL,ioos:station:DISL:PPTA:1,2019-03-08T01:00:00Z,30.2791,-87.5561,1.2,30.5,11111222 
DISL,ioos:station:DISL:PPTA:1,2019-03-08T01:30:00Z,30.2791,-87.5561,1.2,30.6,11111222 
DISL,ioos:station:DISL:PPTA:1,2019-03-08T02:00:00Z,30.2791,-87.5561,1.2,30.9,11111222 
DISL,ioos:station:DISL:PPTA:1,2019-03-08T02:30:00Z,30.2791,-87.5561,1.2,30.6,11111222 
DISL,ioos:station:DISL:PPTA:1,2019-03-08T03:00:00Z,30.2791,-87.5561,1.2,30.2,11111222 
DISL,ioos:station:DISL:PPTA:1,2019-03-08T03:30:00Z,30.2791,-87.5561,1.2,29.7,11111222 
DISL,ioos:station:DISL:PPTA:1,2019-03-08T04:00:00Z,30.2791,-87.5561,1.2,30.2,11111222 
DISL,ioos:station:DISL:PPTA:1,2019-03-08T04:30:00Z,30.2791,-87.5561,1.2,29.6,11111222 
DISL,ioos:station:DISL:PPTA:1,2019-03-08T05:00:00Z,30.2791,-87.5561,1.2,29.3,11111222 
DISL,ioos:station:DISL:PPTA:1,2019-03-08T05:30:00Z,30.2791,-87.5561,1.2,29.5,11111222 
DISL,ioos:station:DISL:PPTA:1,2019-03-08T06:00:00Z,30.2791,-87.5561,1.3,29.8,11111222 
DISL,ioos:station:DISL:PPTA:1,2019-03-08T06:30:00Z,30.2791,-87.5561,1.3,29.3,11111222 
DISL,ioos:station:DISL:PPTA:1,2019-03-08T07:00:00Z,30.2791,-87.5561,1.3,29.1,11111222 
DISL,ioos:station:DISL:PPTA:1,2019-03-08T07:30:00Z,30.2791,-87.5561,1.2,29.0,11111222 
DISL,ioos:station:DISL:PPTA:1,2019-03-08T08:00:00Z,30.2791,-87.5561,1.2,28.9,11111222 
DISL,ioos:station:DISL:PPTA:1,2019-03-08T08:30:00Z,30.2791,-87.5561,1.2,28.8,11111222 
DISL,ioos:station:DISL:PPTA:1,2019-03-08T09:00:00Z,30.2791,-87.5561,1.2,28.5,11111222 
DISL,ioos:station:DISL:PPTA:1,2019-03-08T09:30:00Z,30.2791,-87.5561,1.2,28.1,11111222 
DISL,ioos:station:DISL:PPTA:1,2019-03-08T10:00:00Z,30.2791,-87.5561,1.2,25.4,11111222 
DISL,ioos:station:DISL:PPTA:1,2019-03-08T10:30:00Z,30.2791,-87.5561,1.2,28.2,11111222 
DISL,ioos:station:DISL:PPTA:1,2019-03-08T11:00:00Z,30.2791,-87.5561,1.2,28.0,11111222 
DISL,ioos:station:DISL:PPTA:1,2019-03-08T11:30:00Z,30.2791,-87.5561,1.2,26.5,11111222 
DISL,ioos:station:DISL:PPTA:1,2019-03-08T12:00:00Z,30.2791,-87.5561,1.2,22.1,11111222 
DISL,ioos:station:DISL:PPTA:1,2019-03-08T12:30:00Z,30.2791,-87.5561,1.2,25.1,11111222 
DISL,ioos:station:DISL:PPTA:1,2019-03-08T13:00:00Z,30.2791,-87.5561,1.2,23.9,11111222 
DISL,ioos:station:DISL:PPTA:1,2019-03-08T13:30:00Z,30.2791,-87.5561,1.3,23.2,11111222 
DISL,ioos:station:DISL:PPTA:1,2019-03-08T14:00:00Z,30.2791,-87.5561,1.3,24.7,11111222 
DISL,ioos:station:DISL:PPTA:1,2019-03-08T14:30:00Z,30.2791,-87.5561,1.3,22.1,11111222 
DISL,ioos:station:DISL:PPTA:1,2019-03-08T15:00:00Z,30.2791,-87.5561,1.3,22.0,11111222 
DISL,ioos:station:DISL:PPTA:1,2019-03-08T15:30:00Z,30.2791,-87.5561,1.3,23.4,11111222 
DISL,ioos:station:DISL:PPTA:1,2019-03-08T16:00:00Z,30.2791,-87.5561,1.3,21.1,11111222 
DISL,ioos:station:DISL:PPTA:1,2019-03-08T16:30:00Z,30.2791,-87.5561,1.3,24.5,11111222 
DISL,ioos:station:DISL:PPTA:1,2019-03-08T17:00:00Z,30.2791,-87.5561,1.3,27.3,11111222 
DISL,ioos:station:DISL:PPTA:1,2019-03-08T17:30:00Z,30.2791,-87.5561,1.3,27.5,11111222 
DISL,ioos:station:DISL:PPTA:1,2019-03-08T18:00:00Z,30.2791,-87.5561,1.3,27.5,11111222 
DISL,ioos:station:DISL:PPTA:1,2019-03-08T18:30:00Z,30.2791,-87.5561,1.3,27.9,11111222 
DISL,ioos:station:DISL:PPTA:1,2019-03-08T19:00:00Z,30.2791,-87.5561,1.3,28.2,11111222 
DISL,ioos:station:DISL:PPTA:1,2019-03-08T19:30:00Z,30.2791,-87.5561,1.2,28.3,11111222 
DISL,ioos:station:DISL:PPTA:1,2019-03-08T20:00:00Z,30.2791,-87.5561,1.3,26.4,11111222 
DISL,ioos:station:DISL:PPTA:1,2019-03-08T20:30:00Z,30.2791,-87.5561,1.3,25.5,11111222 
DISL,ioos:station:DISL:PPTA:1,2019-03-08T21:00:00Z,30.2791,-87.5561,1.3,26.1,11111222 
DISL,ioos:station:DISL:PPTA:1,2019-03-08T21:30:00Z,30.2791,-87.5561,1.2,25.2,11111222 
DISL,ioos:station:DISL:PPTA:1,2019-03-08T22:00:00Z,30.2791,-87.5561,1.3,23.7,11111222 
DISL,ioos:station:DISL:PPTA:1,2019-03-08T22:30:00Z,30.2791,-87.5561,1.3,20.3,11111222 
DISL,ioos:station:DISL:PPTA:1,2019-03-08T23:00:00Z,30.2791,-87.5561,1.3,20.1,11111222 
DISL,ioos:station:DISL:PPTA:1,2019-03-08T23:30:00Z,30.2791,-87.5561,1.3,21.2,11111222 
DISL,ioos:station:DISL:PPTA:1,2019-03-09T00:00:00Z,30.2791,-87.5561,1.3,18.7,11111222 
DISL,ioos:station:DISL:PPTA:1,2019-03-09T00:30:00Z,30.2791,-87.5561,1.3,18.7,11111222 
DISL,ioos:station:DISL:PPTA:1,2019-03-09T01:00:00Z,30.2791,-87.5561,1.3,21.5,11111222 
DISL,ioos:station:DISL:PPTA:1,2019-03-09T01:30:00Z,30.2791,-87.5561,1.3,20.8,11111222 
DISL,ioos:station:DISL:PPTA:1,2019-03-09T02:00:00Z,30.2791,-87.5561,1.3,21.9,11111222 
DISL,ioos:station:DISL:PPTA:1,2019-03-09T02:30:00Z,30.2791,-87.5561,1.3,25.2,11111222 
DISL,ioos:station:DISL:PPTA:1,2019-03-09T03:00:00Z,30.2791,-87.5561,1.3,26.8,11111222 
DISL,ioos:station:DISL:PPTA:1,2019-03-09T03:30:00Z,30.2791,-87.5561,1.3,27.3,11111222 
DISL,ioos:station:DISL:PPTA:1,2019-03-09T04:00:00Z,30.2791,-87.5561,1.3,27.4,11111222 
DISL,ioos:station:DISL:PPTA:1,2019-03-09T04:30:00Z,30.2791,-87.5561,1.3,27.6,11111222 
DISL,ioos:station:DISL:PPTA:1,2019-03-09T05:00:00Z,30.2791,-87.5561,1.3,27.8,11111222 
DISL,ioos:station:DISL:PPTA:1,2019-03-09T05:30:00Z,30.2791,-87.5561,1.3,28.2,11111222 
DISL,ioos:station:DISL:PPTA:1,2019-03-09T06:00:00Z,30.2791,-87.5561,1.3,28.2,11111222 
DISL,ioos:station:DISL:PPTA:1,2019-03-09T06:30:00Z,30.2791,-87.5561,1.4,28.3,11111222 
DISL,ioos:station:DISL:PPTA:1,2019-03-09T07:00:00Z,30.2791,-87.5561,1.3,28.5,11111222 
DISL,ioos:station:DISL:PPTA:1,2019-03-09T07:30:00Z,30.2791,-87.5561,1.4,28.3,11111222 
DISL,ioos:station:DISL:PPTA:1,2019-03-09T08:00:00Z,30.2791,-87.5561,1.3,28.4,11111222 
DISL,ioos:station:DISL:PPTA:1,2019-03-09T08:30:00Z,30.2791,-87.5561,1.3,27.0,11111222 
DISL,ioos:station:DISL:PPTA:1,2019-03-09T09:00:00Z,30.2791,-87.5561,1.3,25.5,11111222 
DISL,ioos:station:DISL:PPTA:1,2019-03-09T09:30:00Z,30.2791,-87.5561,1.3,26.4,11111222 
DISL,ioos:station:DISL:PPTA:1,2019-03-09T10:00:00Z,30.2791,-87.5561,1.3,22.0,11111222 
DISL,ioos:station:DISL:PPTA:1,2019-03-09T10:30:00Z,30.2791,-87.5561,1.3,26.1,11111222 
DISL,ioos:station:DISL:PPTA:1,2019-03-09T11:00:00Z,30.2791,-87.5561,1.3,20.6,11111222 
DISL,ioos:station:DISL:PPTA:1,2019-03-09T11:30:00Z,30.2791,-87.5561,1.3,20.6,11111222 
DISL,ioos:station:DISL:PPTA:1,2019-03-09T12:00:00Z,30.2791,-87.5561,1.3,19.6,11111222 
DISL,ioos:station:DISL:PPTA:1,2019-03-09T12:30:00Z,30.2791,-87.5561,1.4,19.1,11111222 
DISL,ioos:station:DISL:PPTA:1,2019-03-09T13:00:00Z,30.2791,-87.5561,1.4,20.0,11111222 
DISL,ioos:station:DISL:PPTA:1,2019-03-09T13:30:00Z,30.2791,-87.5561,1.3,19.8,11111222 
DISL,ioos:station:DISL:PPTA:1,2019-03-09T14:00:00Z,30.2791,-87.5561,1.4,19.8,11111222 
DISL,ioos:station:DISL:PPTA:1,2019-03-09T14:30:00Z,30.2791,-87.5561,1.4,24.1,11111222 
DISL,ioos:station:DISL:PPTA:1,2019-03-09T15:00:00Z,30.2791,-87.5561,1.3,27.0,11111222 
DISL,ioos:station:DISL:PPTA:1,2019-03-09T15:30:00Z,30.2791,-87.5561,1.4,25.3,11111222 
DISL,ioos:station:DISL:PPTA:1,2019-03-09T16:00:00Z,30.2791,-87.5561,1.3,26.1,11111222 
DISL,ioos:station:DISL:PPTA:1,2019-03-09T16:30:00Z,30.2791,-87.5561,1.3,26.8,11111222 
DISL,ioos:station:DISL:PPTA:1,2019-03-09T17:00:00Z,30.2791,-87.5561,1.4,27.4,11111222 
DISL,ioos:station:DISL:PPTA:1,2019-03-09T17:30:00Z,30.2791,-87.5561,1.3,27.6,11111222 
DISL,ioos:station:DISL:PPTA:1,2019-03-09T18:00:00Z,30.2791,-87.5561,1.4,27.8,11111222 
DISL,ioos:station:DISL:PPTA:1,2019-03-09T18:30:00Z,30.2791,-87.5561,1.3,27.8,11111222 
DISL,ioos:station:DISL:PPTA:1,2019-03-09T19:00:00Z,30.2791,-87.5561,1.4,27.8,11111222 
DISL,ioos:station:DISL:PPTA:1,2019-03-09T19:30:00Z,30.2791,-87.5561,1.4,28.3,11111222 
DISL,ioos:station:DISL:PPTA:1,2019-03-09T20:00:00Z,30.2791,-87.5561,1.3,28.3,11111222 
DISL,ioos:station:DISL:PPTA:1,2019-03-09T20:30:00Z,30.2791,-87.5561,1.3,22.9,11111222 
DISL,ioos:station:DISL:PPTA:1,2019-03-09T21:00:00Z,30.2791,-87.5561,1.3,26.6,11111222 
DISL,ioos:station:DISL:PPTA:1,2019-03-09T21:30:00Z,30.2791,-87.5561,1.3,22.1,11111222 
DISL,ioos:station:DISL:PPTA:1,2019-03-09T22:00:00Z,30.2791,-87.5561,1.4,21.7,11111222 
DISL,ioos:station:DISL:PPTA:1,2019-03-09T22:30:00Z,30.2791,-87.5561,1.4,26.3,11111222 
DISL,ioos:station:DISL:PPTA:1,2019-03-09T23:00:00Z,30.2791,-87.5561,1.4,19.7,11111222 
DISL,ioos:station:DISL:PPTA:1,2019-03-09T23:30:00Z,30.2791,-87.5561,1.4,21.9,11111222 
DISL,ioos:station:DISL:PPTA:1,2019-03-10T00:00:00Z,30.2791,-87.5561,1.3,20.4,11111222 
DISL,ioos:station:DISL:PPTA:1,2019-03-10T00:30:00Z,30.2791,-87.5561,1.3,19.4,11111222 
DISL,ioos:station:DISL:PPTA:1,2019-03-10T01:00:00Z,30.2791,-87.5561,1.4,18.3,11111222 
DISL,ioos:station:DISL:PPTA:1,2019-03-10T01:30:00Z,30.2791,-87.5561,1.4,17.4,11111222 
DISL,ioos:station:DISL:PPTA:1,2019-03-10T02:00:00Z,30.2791,-87.5561,1.4,19.4,11111222 
DISL,ioos:station:DISL:PPTA:1,2019-03-10T02:30:00Z,30.2791,-87.5561,1.4,19.8,11111222 
DISL,ioos:station:DISL:PPTA:1,2019-03-10T03:00:00Z,30.2791,-87.5561,1.4,21.3,11111222 
DISL,ioos:station:DISL:PPTA:1,2019-03-10T03:30:00Z,30.2791,-87.5561,1.4,21.7,11111222 
DISL,ioos:station:DISL:PPTA:1,2019-03-10T04:00:00Z,30.2791,-87.5561,1.4,19.2,11111222 
DISL,ioos:station:DISL:PPTA:1,2019-03-10T04:30:00Z,30.2791,-87.5561,1.4,19.8,11111222 
DISL,ioos:station:DISL:PPTA:1,2019-03-10T05:00:00Z,30.2791,-87.5561,1.4,23.0,11111222 
DISL,ioos:station:DISL:PPTA:1,2019-03-10T05:30:00Z,30.2791,-87.5561,1.3,18.6,11111222 
DISL,ioos:station:DISL:PPTA:1,2019-03-10T06:00:00Z,30.2791,-87.5561,1.4,23.0,11111222 
DISL,ioos:station:DISL:PPTA:1,2019-03-10T06:30:00Z,30.2791,-87.5561,1.4,20.0,11111222 
DISL,ioos:station:DISL:PPTA:1,2019-03-10T07:00:00Z,30.2791,-87.5561,1.4,17.2,11111222 
DISL,ioos:station:DISL:PPTA:1,2019-03-10T07:30:00Z,30.2791,-87.5561,1.4,19.1,11111222 
DISL,ioos:station:DISL:PPTA:1,2019-03-10T08:00:00Z,30.2791,-87.5561,1.4,21.0,11111222 
DISL,ioos:station:DISL:PPTA:1,2019-03-10T08:30:00Z,30.2791,-87.5561,1.4,22.2,11111222 
DISL,ioos:station:DISL:PPTA:1,2019-03-10T09:00:00Z,30.2791,-87.5561,1.4,23.4,11111222 
DISL,ioos:station:DISL:PPTA:1,2019-03-10T09:30:00Z,30.2791,-87.5561,1.4,23.4,11111222 
DISL,ioos:station:DISL:PPTA:1,2019-03-10T10:00:00Z,30.2791,-87.5561,1.4,17.4,11111222 
DISL,ioos:station:DISL:PPTA:1,2019-03-10T10:30:00Z,30.2791,-87.5561,1.4,16.3,11111222 
DISL,ioos:station:DISL:PPTA:1,2019-03-10T11:00:00Z,30.2791,-87.5561,1.4,16.4,11111222 
DISL,ioos:station:DISL:PPTA:1,2019-03-10T11:30:00Z,30.2791,-87.5561,1.4,20.6,11111222 
DISL,ioos:station:DISL:PPTA:1,2019-03-10T12:00:00Z,30.2791,-87.5561,1.4,16.4,11111222 
DISL,ioos:station:DISL:PPTA:1,2019-03-10T12:30:00Z,30.2791,-87.5561,1.4,18.4,11111222 
DISL,ioos:station:DISL:PPTA:1,2019-03-10T13:00:00Z,30.2791,-87.5561,1.4,17.9,11111222 
DISL,ioos:station:DISL:PPTA:1,2019-03-10T13:30:00Z,30.2791,-87.5561,1.4,17.8,11111222 
DISL,ioos:station:DISL:PPTA:1,2019-03-10T14:00:00Z,30.2791,-87.5561,1.4,18.9,11111222 
DISL,ioos:station:DISL:PPTA:1,2019-03-10T14:30:00Z,30.2791,-87.5561,1.4,22.0,11111222 
DISL,ioos:station:DISL:PPTA:1,2019-03-10T15:00:00Z,30.2791,-87.5561,1.4,25.4,11111222 
DISL,ioos:station:DISL:PPTA:1,2019-03-10T15:30:00Z,30.2791,-87.5561,1.4,25.7,11111222 
DISL,ioos:station:DISL:PPTA:1,2019-03-10T16:00:00Z,30.2791,-87.5561,1.4,27.1,11111222 
DISL,ioos:station:DISL:PPTA:1,2019-03-10T16:30:00Z,30.2791,-87.5561,1.4,27.5,11111222 
DISL,ioos:station:DISL:PPTA:1,2019-03-10T17:00:00Z,30.2791,-87.5561,1.4,27.9,11111222 
DISL,ioos:station:DISL:PPTA:1,2019-03-10T17:30:00Z,30.2791,-87.5561,1.4,28.4,11111222 
DISL,ioos:station:DISL:PPTA:1,2019-03-10T18:00:00Z,30.2791,-87.5561,1.4,28.0,11111222 
DISL,ioos:station:DISL:PPTA:1,2019-03-10T18:30:00Z,30.2791,-87.5561,1.4,28.1,11111222 
DISL,ioos:station:DISL:PPTA:1,2019-03-10T19:00:00Z,30.2791,-87.5561,1.4,27.3,11111222 
DISL,ioos:station:DISL:PPTA:1,2019-03-10T19:30:00Z,30.2791,-87.5561,1.4,26.7,11111222 
DISL,ioos:station:DISL:PPTA:1,2019-03-10T20:00:00Z,30.2791,-87.5561,1.4,22.5,11111222 
DISL,ioos:station:DISL:PPTA:1,2019-03-10T20:30:00Z,30.2791,-87.5561,1.4,25.6,11111222 
DISL,ioos:station:DISL:PPTA:1,2019-03-10T21:00:00Z,30.2791,-87.5561,1.4,19.4,11111222 
DISL,ioos:station:DISL:PPTA:1,2019-03-10T21:30:00Z,30.2791,-87.5561,1.4,23.4,11111222 
DISL,ioos:station:DISL:PPTA:1,2019-03-10T22:00:00Z,30.2791,-87.5561,1.3,21.4,11111222 
DISL,ioos:station:DISL:PPTA:1,2019-03-10T22:30:00Z,30.2791,-87.5561,1.3,22.4,11111222 
DISL,ioos:station:DISL:PPTA:1,2019-03-10T23:00:00Z,30.2791,-87.5561,1.3,26.7,11111222 
DISL,ioos:station:DISL:PPTA:1,2019-03-10T23:30:00Z,30.2791,-87.5561,1.3,19.1,11111222 
DISL,ioos:station:DISL:PPTA:1,2019-03-11T00:00:00Z,30.2791,-87.5561,1.3,18.9,11111222 
DISL,ioos:station:DISL:PPTA:1,2019-03-11T00:30:00Z,30.2791,-87.5561,1.3,17.7,11111222 
DISL,ioos:station:DISL:PPTA:1,2019-03-11T01:00:00Z,30.2791,-87.5561,1.3,16.2,11111222 
DISL,ioos:station:DISL:PPTA:1,2019-03-11T01:30:00Z,30.2791,-87.5561,1.3,16.2,11111222 
DISL,ioos:station:DISL:PPTA:1,2019-03-11T02:00:00Z,30.2791,-87.5561,1.3,16.5,11111222 
DISL,ioos:station:DISL:PPTA:1,2019-03-11T02:30:00Z,30.2791,-87.5561,1.3,15.6,11111222 
DISL,ioos:station:DISL:PPTA:1,2019-03-11T03:00:00Z,30.2791,-87.5561,1.3,16.0,11111222 
DISL,ioos:station:DISL:PPTA:1,2019-03-11T03:30:00Z,30.2791,-87.5561,1.3,15.7,11111222 
DISL,ioos:station:DISL:PPTA:1,2019-03-11T04:00:00Z,30.2791,-87.5561,1.3,15.5,11111222 
DISL,ioos:station:DISL:PPTA:1,2019-03-11T04:30:00Z,30.2791,-87.5561,1.3,15.5,11111222 
DISL,ioos:station:DISL:PPTA:1,2019-03-11T05:00:00Z,30.2791,-87.5561,1.3,15.5,11111222 
DISL,ioos:station:DISL:PPTA:1,2019-03-11T05:30:00Z,30.2791,-87.5561,1.3,15.2,11111222 
DISL,ioos:station:DISL:PPTA:1,2019-03-11T06:00:00Z,30.2791,-87.5561,1.3,15.3,11111222 
DISL,ioos:station:DISL:PPTA:1,2019-03-11T06:30:00Z,30.2791,-87.5561,1.3,15.2,11111222 
DISL,ioos:station:DISL:PPTA:1,2019-03-11T07:00:00Z,30.2791,-87.5561,1.3,15.8,11111222 
DISL,ioos:station:DISL:PPTA:1,2019-03-11T07:30:00Z,30.2791,-87.5561,1.2,16.0,11111222 
DISL,ioos:station:DISL:PPTA:1,2019-03-11T08:00:00Z,30.2791,-87.5561,1.2,15.9,11111222 
DISL,ioos:station:DISL:PPTA:1,2019-03-11T08:30:00Z,30.2791,-87.5561,1.3,16.1,11111222 
DISL,ioos:station:DISL:PPTA:1,2019-03-11T09:00:00Z,30.2791,-87.5561,1.3,16.3,11111222 
DISL,ioos:station:DISL:PPTA:1,2019-03-11T09:30:00Z,30.2791,-87.5561,1.3,16.5,11111222 
DISL,ioos:station:DISL:PPTA:1,2019-03-11T10:00:00Z,30.2791,-87.5561,1.2,18.0,11111222 
DISL,ioos:station:DISL:PPTA:1,2019-03-11T10:30:00Z,30.2791,-87.5561,1.3,21.7,11111222 
DISL,ioos:station:DISL:PPTA:1,2019-03-11T11:00:00Z,30.2791,-87.5561,1.2,20.5,11111222 
DISL,ioos:station:DISL:PPTA:1,2019-03-11T11:30:00Z,30.2791,-87.5561,1.3,21.6,11111222 
DISL,ioos:station:DISL:PPTA:1,2019-03-11T12:00:00Z,30.2791,-87.5561,1.3,24.7,11111222 
DISL,ioos:station:DISL:PPTA:1,2019-03-11T12:30:00Z,30.2791,-87.5561,1.3,28.7,11111222 
DISL,ioos:station:DISL:PPTA:1,2019-03-11T13:00:00Z,30.2791,-87.5561,1.3,29.1,11111222 
DISL,ioos:station:DISL:PPTA:1,2019-03-11T13:30:00Z,30.2791,-87.5561,1.3,29.3,11111222 
DISL,ioos:station:DISL:PPTA:1,2019-03-11T14:00:00Z,30.2791,-87.5561,1.3,29.2,11111222 
DISL,ioos:station:DISL:PPTA:1,2019-03-11T14:30:00Z,30.2791,-87.5561,1.3,29.2,11111222 
DISL,ioos:station:DISL:PPTA:1,2019-03-11T15:00:00Z,30.2791,-87.5561,1.3,29.2,11111222 
DISL,ioos:station:DISL:PPTA:1,2019-03-11T15:30:00Z,30.2791,-87.5561,1.4,29.4,11111222 
DISL,ioos:station:DISL:PPTA:1,2019-03-11T16:00:00Z,30.2791,-87.5561,1.4,29.7,11111222 
DISL,ioos:station:DISL:PPTA:1,2019-03-11T16:30:00Z,30.2791,-87.5561,1.4,29.7,11111222 
DISL,ioos:station:DISL:PPTA:1,2019-03-11T17:00:00Z,30.2791,-87.5561,1.4,29.6,11111222 
DISL,ioos:station:DISL:PPTA:1,2019-03-11T17:30:00Z,30.2791,-87.5561,1.4,29.8,11111222 
DISL,ioos:station:DISL:PPTA:1,2019-03-11T18:00:00Z,30.2791,-87.5561,1.4,29.7,11111222 
DISL,ioos:station:DISL:PPTA:1,2019-03-11T18:30:00Z,30.2791,-87.5561,1.4,29.7,11111222 
DISL,ioos:station:DISL:PPTA:1,2019-03-11T19:00:00Z,30.2791,-87.5561,1.4,29.9,11111222 
DISL,ioos:station:DISL:PPTA:1,2019-03-11T19:30:00Z,30.2791,-87.5561,1.3,29.6,11111222 
DISL,ioos:station:DISL:PPTA:1,2019-03-11T20:00:00Z,30.2791,-87.5561,1.4,29.7,11111222 
DISL,ioos:station:DISL:PPTA:1,2019-03-11T20:30:00Z,30.2791,-87.5561,1.3,29.8,11111222 
DISL,ioos:station:DISL:PPTA:1,2019-03-11T21:00:00Z,30.2791,-87.5561,1.3,29.5,11111222 
DISL,ioos:station:DISL:PPTA:1,2019-03-11T21:30:00Z,30.2791,-87.5561,1.3,26.9,11111222 
DISL,ioos:station:DISL:PPTA:1,2019-03-11T22:00:00Z,30.2791,-87.5561,1.3,27.3,11111222 
DISL,ioos:station:DISL:PPTA:1,2019-03-11T22:30:00Z,30.2791,-87.5561,1.3,26.5,11111222 
DISL,ioos:station:DISL:PPTA:1,2019-03-11T23:00:00Z,30.2791,-87.5561,1.3,26.8,11111222 
DISL,ioos:station:DISL:PPTA:1,2019-03-11T23:30:00Z,30.2791,-87.5561,1.3,25.6,11111222 
DISL,ioos:station:DISL:PPTA:1,2019-03-12T00:00:00Z,30.2791,-87.5561,1.3,27.8,11111222 
DISL,ioos:station:DISL:PPTA:1,2019-03-12T00:30:00Z,30.2791,-87.5561,1.2,24.9,11111222 
DISL,ioos:station:DISL:PPTA:1,2019-03-12T01:00:00Z,30.2791,-87.5561,1.2,23.1,11111222 
DISL,ioos:station:DISL:PPTA:1,2019-03-12T01:30:00Z,30.2791,-87.5561,1.2,19.8,11111222 
DISL,ioos:station:DISL:PPTA:1,2019-03-12T02:00:00Z,30.2791,-87.5561,1.2,23.6,11111222 
DISL,ioos:station:DISL:PPTA:1,2019-03-12T02:30:00Z,30.2791,-87.5561,1.2,22.6,11111222 
DISL,ioos:station:DISL:PPTA:1,2019-03-12T03:00:00Z,30.2791,-87.5561,1.2,19.4,11111222 
DISL,ioos:station:DISL:PPTA:1,2019-03-12T03:30:00Z,30.2791,-87.5561,1.2,20.6,11111222 
DISL,ioos:station:DISL:PPTA:1,2019-03-12T04:00:00Z,30.2791,-87.5561,1.2,18.2,11111222 
DISL,ioos:station:DISL:PPTA:1,2019-03-12T04:30:00Z,30.2791,-87.5561,1.2,18.9,11111222 
DISL,ioos:station:DISL:PPTA:1,2019-03-12T05:00:00Z,30.2791,-87.5561,1.1,17.7,11111222 
DISL,ioos:station:DISL:PPTA:1,2019-03-12T05:30:00Z,30.2791,-87.5561,1.2,17.5,11111222 
DISL,ioos:station:DISL:PPTA:1,2019-03-12T06:00:00Z,30.2791,-87.5561,1.2,16.8,11111222 
DISL,ioos:station:DISL:PPTA:1,2019-03-12T06:30:00Z,30.2791,-87.5561,1.1,16.6,11111222 
DISL,ioos:station:DISL:PPTA:1,2019-03-12T07:00:00Z,30.2791,-87.5561,1.2,15.2,11111222 
DISL,ioos:station:DISL:PPTA:1,2019-03-12T07:30:00Z,30.2791,-87.5561,1.2,15.9,11111222 
DISL,ioos:station:DISL:PPTA:1,2019-03-12T08:00:00Z,30.2791,-87.5561,1.2,15.7,11111222 
DISL,ioos:station:DISL:PPTA:1,2019-03-12T08:30:00Z,30.2791,-87.5561,1.1,15.5,11111222 
DISL,ioos:station:DISL:PPTA:1,2019-03-12T09:00:00Z,30.2791,-87.5561,1.1,16.3,11111222 
DISL,ioos:station:DISL:PPTA:1,2019-03-12T09:30:00Z,30.2791,-87.5561,1.2,14.5,11111222 
DISL,ioos:station:DISL:PPTA:1,2019-03-12T10:00:00Z,30.2791,-87.5561,1.2,16.6,11111222 
DISL,ioos:station:DISL:PPTA:1,2019-03-12T10:30:00Z,30.2791,-87.5561,1.1,14.1,11111222 
DISL,ioos:station:DISL:PPTA:1,2019-03-12T11:00:00Z,30.2791,-87.5561,1.2,17.1,11111222 
DISL,ioos:station:DISL:PPTA:1,2019-03-12T11:30:00Z,30.2791,-87.5561,1.2,14.0,11111222 
DISL,ioos:station:DISL:PPTA:1,2019-03-12T12:00:00Z,30.2791,-87.5561,1.2,24.2,11111222 
DISL,ioos:station:DISL:PPTA:1,2019-03-12T12:30:00Z,30.2791,-87.5561,1.2,26.7,11111222 
DISL,ioos:station:DISL:PPTA:1,2019-03-12T13:00:00Z,30.2791,-87.5561,1.2,24.6,11111222 
DISL,ioos:station:DISL:PPTA:1,2019-03-12T13:30:00Z,30.2791,-87.5561,1.2,28.5,11111222 
DISL,ioos:station:DISL:PPTA:1,2019-03-12T14:00:00Z,30.2791,-87.5561,1.2,28.9,11111222 
DISL,ioos:station:DISL:PPTA:1,2019-03-12T14:30:00Z,30.2791,-87.5561,1.2,29.8,11111222 
DISL,ioos:station:DISL:PPTA:1,2019-03-12T15:00:00Z,30.2791,-87.5561,1.3,29.8,11111222 
DISL,ioos:station:DISL:PPTA:1,2019-03-12T15:30:00Z,30.2791,-87.5561,1.3,29.8,11111222 
DISL,ioos:station:DISL:PPTA:1,2019-03-12T16:00:00Z,30.2791,-87.5561,1.3,30.1,11111222 
DISL,ioos:station:DISL:PPTA:1,2019-03-12T16:30:00Z,30.2791,-87.5561,1.3,30.0,11111222 
DISL,ioos:station:DISL:PPTA:1,2019-03-12T17:00:00Z,30.2791,-87.5561,1.3,29.9,11111222 
DISL,ioos:station:DISL:PPTA:1,2019-03-12T17:30:00Z,30.2791,-87.5561,1.3,30.0,11111222 
DISL,ioos:station:DISL:PPTA:1,2019-03-12T18:00:00Z,30.2791,-87.5561,1.3,30.3,11111222 
DISL,ioos:station:DISL:PPTA:1,2019-03-12T18:30:00Z,30.2791,-87.5561,1.3,30.0,11111222 
DISL,ioos:station:DISL:PPTA:1,2019-03-12T19:00:00Z,30.2791,-87.5561,1.3,30.2,11111222 
DISL,ioos:station:DISL:PPTA:1,2019-03-12T19:30:00Z,30.2791,-87.5561,1.3,30.1,11111222 
DISL,ioos:station:DISL:PPTA:1,2019-03-12T20:00:00Z,30.2791,-87.5561,1.3,30.3,11111222 
DISL,ioos:station:DISL:PPTA:1,2019-03-12T20:30:00Z,30.2791,-87.5561,1.3,29.9,11111222 
DISL,ioos:station:DISL:PPTA:1,2019-03-12T21:00:00Z,30.2791,-87.5561,1.3,30.4,11111222 
DISL,ioos:station:DISL:PPTA:1,2019-03-12T21:30:00Z,30.2791,-87.5561,1.3,30.4,11111222 
DISL,ioos:station:DISL:PPTA:1,2019-03-12T22:00:00Z,30.2791,-87.5561,1.3,30.3,11111222 
DISL,ioos:station:DISL:PPTA:1,2019-03-12T22:30:00Z,30.2791,-87.5561,1.3,30.2,11111222 
DISL,ioos:station:DISL:PPTA:1,2019-03-12T23:00:00Z,30.2791,-87.5561,1.3,30.2,11111222 
DISL,ioos:station:DISL:PPTA:1,2019-03-12T23:30:00Z,30.2791,-87.5561,1.3,28.0,11111222 
DISL,ioos:station:DISL:PPTA:1,2019-03-13T00:00:00Z,30.2791,-87.5561,1.3,28.1,11111222 
DISL,ioos:station:DISL:PPTA:1,2019-03-13T00:30:00Z,30.2791,-87.5561,1.3,28.5,11111222 
DISL,ioos:station:DISL:PPTA:1,2019-03-13T01:00:00Z,30.2791,-87.5561,1.3,28.8,11111222 
DISL,ioos:station:DISL:PPTA:1,2019-03-13T01:30:00Z,30.2791,-87.5561,1.2,27.5,11111222 
DISL,ioos:station:DISL:PPTA:1,2019-03-13T02:00:00Z,30.2791,-87.5561,1.2,23.6,11111222 
DISL,ioos:station:DISL:PPTA:1,2019-03-13T02:30:00Z,30.2791,-87.5561,1.2,29.7,11111222 
DISL,ioos:station:DISL:PPTA:1,2019-03-13T03:00:00Z,30.2791,-87.5561,1.2,24.3,11111222 
DISL,ioos:station:DISL:PPTA:1,2019-03-13T03:30:00Z,30.2791,-87.5561,1.2,21.2,11111222 
DISL,ioos:station:DISL:PPTA:1,2019-03-13T04:00:00Z,30.2791,-87.5561,1.2,20.6,11111222 
DISL,ioos:station:DISL:PPTA:1,2019-03-13T04:30:00Z,30.2791,-87.5561,1.2,21.2,11111222 
DISL,ioos:station:DISL:PPTA:1,2019-03-13T05:00:00Z,30.2791,-87.5561,1.2,20.6,11111222 
DISL,ioos:station:DISL:PPTA:1,2019-03-13T05:30:00Z,30.2791,-87.5561,1.2,19.6,11111222 
DISL,ioos:station:DISL:PPTA:1,2019-03-13T06:00:00Z,30.2791,-87.5561,1.2,18.5,11111222 
DISL,ioos:station:DISL:PPTA:1,2019-03-13T06:30:00Z,30.2791,-87.5561,1.2,18.5,11111222 
DISL,ioos:station:DISL:PPTA:1,2019-03-13T07:00:00Z,30.2791,-87.5561,1.2,17.2,11111222 
DISL,ioos:station:DISL:PPTA:1,2019-03-13T07:30:00Z,30.2791,-87.5561,1.2,16.5,11111222 
DISL,ioos:station:DISL:PPTA:1,2019-03-13T08:00:00Z,30.2791,-87.5561,1.2,19.1,11111222 
DISL,ioos:station:DISL:PPTA:1,2019-03-13T08:30:00Z,30.2791,-87.5561,1.2,15.8,11111222 
DISL,ioos:station:DISL:PPTA:1,2019-03-13T09:00:00Z,30.2791,-87.5561,1.2,18.9,11111222 
DISL,ioos:station:DISL:PPTA:1,2019-03-13T09:30:00Z,30.2791,-87.5561,1.2,16.4,11111222 
DISL,ioos:station:DISL:PPTA:1,2019-03-13T10:00:00Z,30.2791,-87.5561,1.2,18.6,11111222 
DISL,ioos:station:DISL:PPTA:1,2019-03-13T10:30:00Z,30.2791,-87.5561,1.2,21.3,11111222 
DISL,ioos:station:DISL:PPTA:1,2019-03-13T11:00:00Z,30.2791,-87.5561,1.2,27.5,11111222 
DISL,ioos:station:DISL:PPTA:1,2019-03-13T11:30:00Z,30.2791,-87.5561,1.2,28.0,11111222 
DISL,ioos:station:DISL:PPTA:1,2019-03-13T12:00:00Z,30.2791,-87.5561,1.3,28.4,11111222 
DISL,ioos:station:DISL:PPTA:1,2019-03-13T12:30:00Z,30.2791,-87.5561,1.3,28.4,11111222 
DISL,ioos:station:DISL:PPTA:1,2019-03-13T13:00:00Z,30.2791,-87.5561,1.3,28.5,11111222 
DISL,ioos:station:DISL:PPTA:1,2019-03-13T13:30:00Z,30.2791,-87.5561,1.3,28.7,11111222 
DISL,ioos:station:DISL:PPTA:1,2019-03-13T14:00:00Z,30.2791,-87.5561,1.4,28.6,11111222 
DISL,ioos:station:DISL:PPTA:1,2019-03-13T14:30:00Z,30.2791,-87.5561,1.4,28.5,11111222 
DISL,ioos:station:DISL:PPTA:1,2019-03-13T15:00:00Z,30.2791,-87.5561,1.4,28.5,11111222 
DISL,ioos:station:DISL:PPTA:1,2019-03-13T15:30:00Z,30.2791,-87.5561,1.4,28.6,11111222 